Weather History for KTCM - January, 2013

Change the Weather History Date:

Thursday, January 17, 2013

  Actual Average Record
Temperature  
Mean Temperature 28 °F -  
Max Temperature 36 °F 45 °F 57 °F (2005)
Min Temperature 21 °F 33 °F 17 °F (1984)
Degree Days  
Heating Degree Days 36    
Moisture  
Dew Point 31 °F    
Average Humidity 99    
Maximum Humidity 100    
Minimum Humidity 93    
Precipitation  
Precipitation 0.00 in - - ()
Sea Level Pressure  
Sea Level Pressure 30.39 in    
Wind  
Wind Speed 2 mph (SSW)    
Max Wind Speed 5 mph    
Max Gust Speed -    
Visibility 2 miles    
Events Fog    
Averages and records for this station are not official NWS values.
T = Trace of Precipitation, MM = Missing Value Source: NWS Daily Summary

Daily Weather History Graph

Daily Weather History Graph

Search for Another Location

Airport or City:

Trip Planner

Search our weather history database for the weather conditions in past years. The results will help you decide how hot, cold, wet, or windy it might be!

Date:

Astronomy

Jan. 17, 2013 Rise Set
Actual Time 7:50 AM PST 4:50 PM PST
Civil Twilight 7:15 AM PST 5:24 PM PST
Nautical Twilight 6:38 AM PST 6:02 PM PST
Astronomical Twilight 6:01 AM PST 6:38 PM PST
Moon 10:30 AM PST (1/17) No Moon Set
Length of Visible Light 10h 08m
Length of Day
9h 00m
Waxing Crescent, 39% of the Moon is Illuminated
Jan 17
Waxing Crescent
Jan 18
First Quarter
Jan 26
Full
Feb 3
Last Quarter
Feb 9
New

Hourly Weather History & Observations

Time (PST) Temp. Windchill Dew Point Humidity Pressure Visibility Wind Dir Wind Speed Gust Speed Precip Events Conditions
12:58 AM 24.6 °F - 24.1 °F 98% 30.54 in 7.0 mi SE 2.3 mph - N/A   Clear
1:58 AM 22.8 °F - 22.5 °F 99% 30.53 in 10.0 mi Calm Calm - N/A   Clear
2:58 AM 24.1 °F - 23.5 °F 98% 30.53 in 9.0 mi South 1.2 mph - N/A   Clear
3:58 AM 22.1 °F - 21.6 °F 98% 30.50 in 10.0 mi Calm Calm - N/A   Clear
4:58 AM 22.1 °F - 21.6 °F 98% 30.49 in 10.0 mi ESE 1.2 mph - N/A   Clear
5:58 AM 21.4 °F - 21.0 °F 99% 30.48 in 10.0 mi Calm Calm - N/A   Clear
6:33 AM 21.2 °F - 19.4 °F 93% 30.44 in 10.0 mi SSE 1.2 mph - N/A   Partly Cloudy
6:43 AM 21.2 °F 16.4 °F 21.2 °F 100% 30.45 in 10.0 mi SSW 3.5 mph - N/A   Mostly Cloudy
6:49 AM 21.2 °F 16.4 °F 21.2 °F 100% 30.45 in 10.0 mi SSW 3.5 mph - N/A   Mostly Cloudy
6:58 AM 23.0 °F 18.4 °F 21.2 °F 93% 30.48 in 10.0 mi SSW 3.5 mph - N/A   Mostly Cloudy
7:03 AM 23.0 °F - 21.2 °F 93% 30.44 in 10.0 mi South 2.3 mph - N/A   Overcast
7:18 AM 23.0 °F - 23.0 °F 100% 30.45 in 10.0 mi Calm Calm - N/A   Overcast
7:58 AM 25.9 °F - 25.5 °F 99% 30.48 in 10.0 mi SSW 2.3 mph - N/A   Overcast
8:20 AM 26.6 °F - 24.8 °F 93% 30.45 in 4.0 mi South 2.3 mph - N/A   Overcast
8:30 AM 26.6 °F - 26.6 °F 100% 30.45 in 2.0 mi SSW 2.3 mph - N/A   Overcast
8:35 AM 26.6 °F - 26.6 °F 100% 30.45 in 0.8 mi South 2.3 mph - N/A   Mist
8:40 AM 26.6 °F - 26.6 °F 100% 30.45 in 0.5 mi South 2.3 mph - N/A Fog Light Freezing Fog
8:45 AM 26.6 °F - 26.6 °F 100% 30.45 in 0.5 mi South 2.3 mph - N/A Fog Light Freezing Fog
8:51 AM 26.6 °F - 26.6 °F 100% 30.46 in 0.8 mi South 2.3 mph - N/A   Mist
8:56 AM 26.6 °F - 26.6 °F 100% 30.46 in 0.5 mi West 1.2 mph - N/A Fog Light Freezing Fog
8:58 AM 27.3 °F - 27.1 °F 99% 30.49 in 0.5 mi West 1.2 mph - N/A Fog Light Freezing Fog
9:03 AM 28.4 °F - 28.4 °F 100% 30.46 in 0.2 mi South 2.3 mph - N/A Fog Light Freezing Fog
9:45 AM 30.2 °F - 28.4 °F 93% 30.46 in 0.5 mi SSW 1.2 mph - N/A Fog Light Freezing Fog
9:50 AM 30.2 °F - 30.2 °F 100% 30.46 in 0.8 mi South 1.2 mph - N/A   Mist
9:54 AM 30.2 °F - 30.2 °F 100% 30.46 in 0.8 mi South 2.3 mph - N/A   Light Freezing Drizzle
9:58 AM 30.0 °F - 29.8 °F 99% 30.49 in 0.8 mi Calm Calm - 0.00 in   Light Freezing Drizzle
10:03 AM 32.0 °F - 30.2 °F 93% 30.46 in 0.8 mi SSW 2.3 mph - N/A   Mist
10:08 AM 32.0 °F - 32.0 °F 100% 30.46 in 0.5 mi SSW 2.3 mph - N/A Fog Light Freezing Fog
10:13 AM 32.0 °F - 32.0 °F 100% 30.46 in 0.2 mi SW 2.3 mph - N/A Fog Light Freezing Fog
10:18 AM 32.0 °F - 32.0 °F 100% 30.46 in 0.2 mi SW 2.3 mph - N/A Fog Light Freezing Fog
10:28 AM 32.0 °F - 32.0 °F 100% 30.45 in 0.2 mi Calm Calm - N/A Fog Light Freezing Fog
10:33 AM 32.0 °F - 32.0 °F 100% 30.45 in 0.2 mi Calm Calm - N/A Fog Light Freezing Fog
10:40 AM 32.0 °F - 32.0 °F 100% 30.45 in 0.2 mi Calm Calm - N/A Fog Fog
10:58 AM 32.2 °F - 32.0 °F 99% 30.48 in 0.2 mi North 2.3 mph - N/A Fog Fog
11:09 AM 32.0 °F - 32.0 °F 100% 30.44 in 0.2 mi Calm Calm - N/A Fog Fog
11:14 AM 32.0 °F 28.7 °F 32.0 °F 100% 30.44 in 0.2 mi NNE 3.5 mph - N/A Fog Fog
11:19 AM 32.0 °F - 32.0 °F 100% 30.44 in 0.2 mi Calm Calm - N/A Fog Fog
11:24 AM 32.0 °F - 32.0 °F 100% 30.43 in 0.2 mi North 2.3 mph - N/A Fog Fog
11:41 AM 32.0 °F - 32.0 °F 100% 30.43 in 0.2 mi North 2.3 mph - N/A Fog Fog
11:58 AM 33.6 °F - 33.4 °F 99% 30.45 in 0.2 mi Variable 2.3 mph - N/A Fog Fog
12:03 PM 33.8 °F 30.8 °F 32.0 °F 93% 30.42 in 0.2 mi NNW 3.5 mph - N/A Fog Fog
12:40 PM 33.8 °F - 33.8 °F 100% 30.39 in 0.2 mi SE 2.3 mph - N/A Fog Fog
12:50 PM 33.8 °F - 33.8 °F 100% 30.39 in 0.5 mi Calm Calm - N/A Fog Fog
12:55 PM 35.6 °F - 33.8 °F 93% 30.39 in 0.5 mi East 2.3 mph - N/A Fog Fog
12:58 PM 34.7 °F - 34.5 °F 99% 30.42 in 0.5 mi Variable 2.3 mph - N/A Fog Fog
1:09 PM 33.8 °F - 33.8 °F 100% 30.38 in 0.5 mi Variable 1.2 mph - N/A Fog Fog
1:26 PM 33.8 °F - 33.8 °F 100% 30.37 in 0.2 mi North 2.3 mph - N/A Fog Fog
1:58 PM 34.5 °F - 34.3 °F 99% 30.39 in 0.8 mi West 2.3 mph - N/A   Mist
2:03 PM 35.6 °F 31.7 °F 35.6 °F 100% 30.36 in 1.2 mi NW 4.6 mph - N/A   Overcast
2:13 PM 35.6 °F - 35.6 °F 100% 30.35 in 1.5 mi Calm Calm - N/A   Overcast
2:18 PM 35.6 °F - 35.6 °F 100% 30.35 in 1.8 mi Variable 1.2 mph - N/A   Overcast
2:23 PM 35.6 °F - 35.6 °F 100% 30.35 in 2.0 mi Calm Calm - N/A   Overcast
2:45 PM 35.6 °F - 35.6 °F 100% 30.34 in 2.5 mi ENE 2.3 mph - N/A   Overcast
2:58 PM 36.1 °F 32.3 °F 36.0 °F 99% 30.38 in 3.0 mi NW 4.6 mph - N/A   Overcast
3:08 PM 35.6 °F 32.8 °F 35.6 °F 100% 30.34 in 4.0 mi NNW 3.5 mph - N/A   Overcast
3:41 PM 35.6 °F 32.8 °F 35.6 °F 100% 30.33 in 4.0 mi SW 3.5 mph - N/A   Clear
3:56 PM 35.6 °F 32.8 °F 35.6 °F 100% 30.34 in 2.5 mi SSW 3.5 mph - N/A   Clear
3:58 PM 35.4 °F 32.6 °F 35.1 °F 99% 30.35 in 2.5 mi SSW 3.5 mph - N/A   Clear
3:59 PM 35.6 °F 32.8 °F 35.6 °F 100% 30.33 in 2.5 mi SSW 3.5 mph - N/A   Overcast
4:04 PM 33.8 °F 29.6 °F 33.8 °F 100% 30.33 in 2.0 mi SW 4.6 mph - N/A   Overcast
4:15 PM 32.0 °F 27.5 °F 32.0 °F 100% 30.33 in 1.2 mi South 4.6 mph - N/A   Overcast
4:20 PM 32.0 °F 28.7 °F 32.0 °F 100% 30.33 in 0.8 mi South 3.5 mph - N/A   Mist
4:26 PM 33.8 °F - 32.0 °F 93% 30.33 in 0.2 mi West 1.2 mph - N/A Fog Fog
4:31 PM 33.8 °F - 33.8 °F 100% 30.33 in 0.2 mi West 1.2 mph - N/A Fog Fog
4:36 PM 33.8 °F - 33.8 °F 100% 30.33 in 0.2 mi Calm Calm - N/A Fog Fog
4:58 PM 33.8 °F - 33.6 °F 99% 30.37 in 0.2 mi Calm Calm - N/A Fog Fog
5:41 PM 32.0 °F - 32.0 °F 100% 30.33 in 0.5 mi South 2.3 mph - N/A Fog Fog
5:46 PM 33.8 °F - 32.0 °F 93% 30.33 in 0.5 mi Calm Calm - N/A Fog Fog
5:58 PM 33.8 °F - 32.0 °F 93% 30.36 in 0.8 mi Calm Calm - N/A   Mist
6:04 PM 33.8 °F - 32.0 °F 93% 30.33 in 0.8 mi SSW 2.3 mph - N/A   Mist
6:25 PM 33.8 °F - 33.8 °F 100% 30.33 in 0.5 mi SSW 2.3 mph - N/A Fog Fog
6:37 PM 33.8 °F - 33.8 °F 100% 30.33 in 0.5 mi South 2.3 mph - N/A Fog Fog
6:42 PM 33.8 °F - 33.8 °F 100% 30.33 in 0.2 mi WSW 2.3 mph - N/A Fog Fog
6:47 PM 33.8 °F - 33.8 °F 100% 30.33 in 0.2 mi SW 1.2 mph - N/A Fog Fog
6:53 PM 33.8 °F - 33.8 °F 100% 30.33 in 0.2 mi SW 1.2 mph - N/A Fog Fog
6:58 PM 34.2 °F - 34.0 °F 99% 30.36 in 0.2 mi Calm Calm - N/A Fog Fog
7:08 PM 33.8 °F - 32.0 °F 93% 30.33 in 0.2 mi SE 2.3 mph - N/A Fog Fog
7:13 PM 32.0 °F - 32.0 °F 100% 30.33 in 0.2 mi Calm Calm - N/A Fog Fog
7:18 PM 32.0 °F - 32.0 °F 100% 30.33 in 0.2 mi South 2.3 mph - N/A Fog Fog
7:23 PM 32.0 °F - 32.0 °F 100% 30.33 in 0.2 mi Calm Calm - N/A Fog Fog
7:50 PM 32.0 °F - 32.0 °F 100% 30.33 in 0.2 mi SSW 2.3 mph - N/A Fog Fog
7:58 PM 32.9 °F - 32.7 °F 99% 30.35 in 0.2 mi SSW 2.3 mph - N/A Fog Fog
8:13 PM 32.0 °F - 32.0 °F 100% 30.32 in 0.2 mi SSW 2.3 mph - N/A Fog Fog
8:24 PM 32.0 °F - 32.0 °F 100% 30.32 in 0.2 mi SSW 2.3 mph - N/A Fog Fog
8:40 PM 32.0 °F - 32.0 °F 100% 30.32 in 0.2 mi West 1.2 mph - N/A Fog Fog
8:58 PM 32.0 °F - 32.0 °F 100% 30.35 in 0.2 mi South 2.3 mph - N/A Fog Fog
9:24 PM 32.0 °F - 32.0 °F 100% 30.32 in 0.2 mi Calm Calm - N/A Fog Light Freezing Fog
9:29 PM 32.0 °F - 32.0 °F 100% 30.32 in 0.2 mi Calm Calm - N/A Fog Light Freezing Fog
9:53 PM 32.0 °F - 32.0 °F 100% 30.32 in 0.2 mi Calm Calm - N/A Fog Light Freezing Fog
9:58 PM 31.3 °F - 31.1 °F 99% 30.33 in 0.2 mi Calm Calm - N/A Fog Light Freezing Fog
10:03 PM 32.0 °F - 32.0 °F 100% 30.31 in 0.2 mi Calm Calm - N/A Fog Light Freezing Fog
10:58 PM 31.1 °F - 30.7 °F 99% 30.32 in 0.5 mi Calm Calm - N/A Fog Light Freezing Fog
11:11 PM 32.0 °F - 32.0 °F 100% 30.30 in 0.5 mi South 2.3 mph - N/A Fog Light Freezing Fog
11:58 PM 30.0 °F - 29.8 °F 99% 30.32 in 0.5 mi South 2.3 mph - N/A Fog Light Freezing Fog